This is the latest recevied weather packets stored in our database for station/object K4AMF. If no packets are shown the sender has not sent any weather packets the latest 10 day(s).
| Time | Temp. | Humidity | Pressure | Rain* | Wind** | Luminosity | Snow |
|---|---|---|---|---|---|---|---|
| 1777555167 | 23.89° C | 88% | 1008 hPa | 0 mm | - | 276 W/m² | - |
| 1777554865 | 23.89° C | 88% | 1007.9 hPa | 0 mm | - | 193 W/m² | - |
| 1777554258 | 23.33° C | 89% | 1008.2 hPa | 0 mm | - | 134 W/m² | - |
| 1777553955 | 23.33° C | 89% | 1008.3 hPa | 0 mm | - | 111 W/m² | - |
| 1777553651 | 23.33° C | 89% | 1008.4 hPa | 0 mm | - | 146 W/m² | - |
| 1777553044 | 23.33° C | 90% | 1008.4 hPa | 0 mm | - | 140 W/m² | - |
| 1777552739 | 22.78° C | 90% | 1008.5 hPa | 0 mm | - | 140 W/m² | - |
| 1777552132 | 22.78° C | 91% | 1008.5 hPa | 0 mm | - | 122 W/m² | - |
| 1777551223 | 22.22° C | 91% | 1008.1 hPa | 0 mm | - | 39 W/m² | - |
| 1777550920 | 22.22° C | 91% | 1008.2 hPa | 0 mm | - | 29 W/m² | - |
| 1777549395 | 22.22° C | 91% | 1008.2 hPa | 0 mm | - | 37 W/m² | - |
| 1777547575 | 21.67° C | 90% | 1008.2 hPa | 0 mm | - | 16 W/m² | - |
| 1777546363 | 21.67° C | 90% | 1007.5 hPa | 0 mm | - | 2 W/m² | - |
| 1777545453 | 21.67° C | 89% | 1007.6 hPa | 0 mm | - | 0 W/m² | - |
| 1777545150 | 21.67° C | 89% | 1007.3 hPa | 0 mm | - | 0 W/m² | - |
| 1777544848 | 21.67° C | 89% | 1007.5 hPa | 0 mm | - | 0 W/m² | - |
| 1777544543 | 21.67° C | 88% | 1007.2 hPa | 0 mm | - | 0 W/m² | - |
| 1777544240 | 21.67° C | 88% | 1007.3 hPa | 0 mm | - | 0 W/m² | - |
| 1777543937 | 21.67° C | 88% | 1007.2 hPa | 0 mm | - | 0 W/m² | - |
| 1777543634 | 21.67° C | 88% | 1006.9 hPa | 0 mm | - | 0 W/m² | - |
| 1777542722 | 22.22° C | 87% | 1007 hPa | 0 mm | - | 0 W/m² | - |
| 1777542419 | 21.67° C | 87% | 1006.7 hPa | 0 mm | - | 0 W/m² | - |
| 1777541812 | 21.67° C | 87% | 1006.8 hPa | 0 mm | - | 0 W/m² | - |
| 1777541509 | 21.67° C | 86% | 1006.6 hPa | 0 mm | - | 0 W/m² | - |
| 1777541205 | 21.67° C | 86% | 1007 hPa | 0 mm | - | 0 W/m² | - |
* Rain latest hour (hover to see other rain measurements)
** Current wind speed in m/s (hover to see current wind gust speed)